Weather History for Hot Springs, VA

Change the Weather History Date:

Wednesday, May 2, 2012

  Actual Average Record
Temperature  
Mean Temperature 66 °F -  
Max Temperature 77 °F 61 °F 77 °F (2012)
Min Temperature 55 °F 44 °F 33 °F (1997)
Cooling Degree Days 1    
Growing Degree Days 16 (Base 50)    
Moisture  
Dew Point 56 °F    
Average Humidity 70    
Maximum Humidity 100    
Minimum Humidity 47    
Precipitation  
Precipitation 0.03 in - - ()
Sea Level Pressure  
Sea Level Pressure 30.23 in    
Wind  
Wind Speed 10 mph (West)    
Max Wind Speed 20 mph    
Max Gust Speed 28 mph    
Visibility 10 miles    
Events Rain , Thunderstorm    
Averages and records for this station are not official NWS values.
T = Trace of Precipitation, MM = Missing Value Source: NWS Daily Summary

Daily Weather History Graph

Daily Weather History Graph

Search for Another Location

Airport:

Trip Planner

Search our weather history database for the weather conditions in past years. The results will help you decide how hot, cold, wet, or windy it might be!

Date:

Astronomy

May. 02, 2012 Rise Set
Actual Time 6:21 AM EDT 8:11 PM EDT
Civil Twilight 5:53 AM EDT 8:40 PM EDT
Nautical Twilight 5:18 AM EDT 9:14 PM EDT
Astronomical Twilight 4:41 AM EDT 9:51 PM EDT
Moon 4:25 PM EDT (5/2) 3:46 AM EDT (5/2)
Length of Visible Light 14h 46m
Length of Day
13h 49m
Waxing Gibbous, 83% of the Moon is Illuminated
May 2
Waxing Gibbous
May 5
Full
May 12
Last Quarter
May 20
New
May 28
First Quarter

Hourly Weather History & Observations

Time (EDT) Temp. Dew Point Humidity Pressure Visibility Wind Dir Wind Speed Gust Speed Precip Events Conditions
12:17 AM 64.4 °F 53.6 °F 68% 30.20 in 10.0 mi SSW 5.8 mph - N/A   Clear
12:37 AM 64.4 °F 53.6 °F 68% 30.19 in 10.0 mi South 8.1 mph - N/A   Clear
12:57 AM 64.4 °F 55.4 °F 73% 30.19 in 10.0 mi South 9.2 mph - N/A   Scattered Clouds
1:17 AM 64.4 °F 55.4 °F 73% 30.19 in 10.0 mi SSW 8.1 mph - N/A   Scattered Clouds
1:37 AM 64.4 °F 55.4 °F 73% 30.18 in 10.0 mi SSW 6.9 mph - N/A   Scattered Clouds
1:58 AM 64.4 °F 55.4 °F 73% 30.18 in 10.0 mi SW 10.4 mph - N/A   Scattered Clouds
2:17 AM 62.6 °F 55.4 °F 77% 30.17 in 10.0 mi SW 9.2 mph - N/A   Scattered Clouds
2:37 AM 62.6 °F 57.2 °F 82% 30.16 in 10.0 mi SW 12.7 mph - N/A   Clear
2:57 AM 64.4 °F 55.4 °F 73% 30.15 in 10.0 mi WSW 13.8 mph - N/A   Mostly Cloudy
3:17 AM 60.8 °F 57.2 °F 88% 30.16 in 10.0 mi West 5.8 mph - N/A   Mostly Cloudy
3:37 AM 60.8 °F 57.2 °F 88% 30.16 in 10.0 mi WNW 4.6 mph - N/A   Overcast
3:57 AM 59.0 °F 55.4 °F 88% 30.16 in 10.0 mi West 5.8 mph - N/A Thunderstorm Mostly Cloudy
4:17 AM 60.8 °F 57.2 °F 88% 30.16 in 10.0 mi WSW 8.1 mph - N/A Rain , Thunderstorm Light Thunderstorms and Rain
4:37 AM 60.8 °F 57.2 °F 88% 30.17 in 10.0 mi West 13.8 mph 18.4 mph N/A   Mostly Cloudy
4:57 AM 57.2 °F 55.4 °F 94% 30.18 in 10.0 mi WNW 12.7 mph 23.0 mph N/A   Overcast
5:17 AM 57.2 °F 55.4 °F 94% 30.19 in 7.0 mi NW 12.7 mph 21.9 mph 0.03 in Rain Light Rain
5:37 AM 55.4 °F 55.4 °F 100% 30.20 in 10.0 mi WNW 6.9 mph - 0.03 in   Mostly Cloudy
5:57 AM 55.4 °F 55.4 °F 100% 30.19 in 10.0 mi WNW 10.4 mph - N/A   Scattered Clouds
6:17 AM 55.4 °F 55.4 °F 100% 30.19 in 10.0 mi WNW 8.1 mph - N/A   Clear
6:37 AM 55.4 °F 55.4 °F 100% 30.20 in 10.0 mi West 8.1 mph - N/A   Clear
6:57 AM 55.4 °F 55.4 °F 100% 30.21 in 10.0 mi West 6.9 mph - N/A   Clear
7:17 AM 57.2 °F 55.4 °F 94% 30.21 in 10.0 mi West 10.4 mph - N/A   Scattered Clouds
7:37 AM 57.2 °F 53.6 °F 88% 30.21 in 10.0 mi West 11.5 mph - N/A   Scattered Clouds
7:59 AM 59.0 °F 53.6 °F 82% 30.23 in 10.0 mi West 12.7 mph - N/A   Clear
8:17 AM 60.8 °F 53.6 °F 77% 30.23 in 10.0 mi West 13.8 mph - N/A   Clear
8:37 AM 60.8 °F 55.4 °F 82% 30.24 in 10.0 mi West 13.8 mph - N/A   Clear
8:57 AM 62.6 °F 55.4 °F 77% 30.25 in 10.0 mi West 12.7 mph - N/A   Clear
9:17 AM 62.6 °F 55.4 °F 77% 30.25 in 10.0 mi WNW 11.5 mph - N/A   Mostly Cloudy
9:37 AM 60.8 °F 55.4 °F 82% 30.26 in 10.0 mi West 11.5 mph - N/A   Mostly Cloudy
9:57 AM 62.6 °F 57.2 °F 82% 30.26 in 10.0 mi West 11.5 mph - N/A   Scattered Clouds
10:37 AM 64.4 °F 59.0 °F 83% 30.26 in 10.0 mi West 15.0 mph 18.4 mph N/A   Scattered Clouds
10:57 AM 64.4 °F 59.0 °F 83% 30.26 in 10.0 mi West 13.8 mph 23.0 mph N/A   Clear
11:17 AM 66.2 °F 60.8 °F 83% 30.26 in 10.0 mi West 16.1 mph 21.9 mph N/A   Clear
11:37 AM 66.2 °F 60.8 °F 83% 30.26 in 10.0 mi West 13.8 mph 21.9 mph N/A   Clear
12:00 PM 69.8 °F 60.8 °F 73% 30.26 in 10.0 mi West 12.7 mph 21.9 mph N/A   Scattered Clouds
12:17 PM 69.8 °F 60.8 °F 73% 30.26 in 10.0 mi West 13.8 mph 21.9 mph N/A   Scattered Clouds
12:37 PM 69.8 °F 59.0 °F 68% 30.25 in 10.0 mi West 12.7 mph 21.9 mph N/A   Scattered Clouds
12:57 PM 71.6 °F 59.0 °F 64% 30.24 in 10.0 mi West 15.0 mph 25.3 mph N/A   Scattered Clouds
1:17 PM 71.6 °F 57.2 °F 60% 30.23 in 10.0 mi West 19.6 mph 26.5 mph N/A   Scattered Clouds
1:37 PM 73.4 °F 57.2 °F 57% 30.24 in 10.0 mi WNW 13.8 mph 23.0 mph N/A   Scattered Clouds
1:57 PM 73.4 °F 57.2 °F 57% 30.24 in 10.0 mi WNW 13.8 mph 27.6 mph N/A   Scattered Clouds
2:17 PM 75.2 °F 57.2 °F 53% 30.24 in 10.0 mi NW 10.4 mph 20.7 mph N/A   Scattered Clouds
2:40 PM 75.2 °F 57.2 °F 53% 30.24 in 10.0 mi West 12.7 mph 19.6 mph N/A   Scattered Clouds
2:57 PM 77.0 °F 57.2 °F 50% 30.24 in 10.0 mi WSW 16.1 mph 20.7 mph N/A   Scattered Clouds
3:17 PM 75.2 °F 55.4 °F 50% 30.24 in 10.0 mi West 13.8 mph 23.0 mph N/A   Scattered Clouds
3:37 PM 75.2 °F 55.4 °F 50% 30.23 in 10.0 mi West 13.8 mph 20.7 mph N/A   Scattered Clouds
4:17 PM 77.0 °F 55.4 °F 47% 30.23 in 10.0 mi WSW 11.5 mph 18.4 mph N/A   Scattered Clouds
4:37 PM 75.2 °F 53.6 °F 47% 30.23 in 10.0 mi West 10.4 mph - N/A   Scattered Clouds
4:57 PM 75.2 °F 55.4 °F 50% 30.24 in 10.0 mi West 11.5 mph 18.4 mph N/A   Scattered Clouds
5:20 PM 75.2 °F 53.6 °F 47% 30.24 in 10.0 mi WSW 11.5 mph 20.7 mph N/A   Scattered Clouds
5:38 PM 75.2 °F 55.4 °F 50% 30.24 in 10.0 mi West 9.2 mph 20.7 mph N/A   Scattered Clouds
5:57 PM 73.4 °F 53.6 °F 50% 30.24 in 10.0 mi West 16.1 mph 19.6 mph N/A   Mostly Cloudy
6:17 PM 75.2 °F 55.4 °F 50% 30.24 in 10.0 mi West 9.2 mph 17.3 mph N/A   Overcast
6:37 PM 73.4 °F 53.6 °F 50% 30.24 in 10.0 mi West 8.1 mph 11.5 mph N/A   Mostly Cloudy
6:57 PM 73.4 °F 53.6 °F 50% 30.24 in 10.0 mi West 8.1 mph - N/A   Scattered Clouds
7:17 PM 73.4 °F 53.6 °F 50% 30.25 in 10.0 mi West 8.1 mph - N/A   Scattered Clouds
7:37 PM 73.4 °F 53.6 °F 50% 30.25 in 10.0 mi WNW 5.8 mph - N/A Thunderstorm Scattered Clouds
7:57 PM 73.4 °F 53.6 °F 50% 30.25 in 10.0 mi West 4.6 mph - N/A   Scattered Clouds
8:17 PM 71.6 °F 53.6 °F 53% 30.26 in 10.0 mi West 4.6 mph - N/A   Clear
8:37 PM 69.8 °F 53.6 °F 56% 30.26 in 10.0 mi West 5.8 mph - N/A   Clear
8:57 PM 69.8 °F 53.6 °F 56% 30.27 in 10.0 mi West 6.9 mph - N/A   Clear
9:19 PM 69.8 °F 53.6 °F 56% 30.27 in 10.0 mi WSW 3.5 mph - N/A   Clear
9:37 PM 69.8 °F 51.8 °F 53% 30.27 in 10.0 mi WSW 3.5 mph - N/A   Clear
9:57 PM 66.2 °F 51.8 °F 60% 30.27 in 10.0 mi West 4.6 mph - N/A   Clear
10:17 PM 66.2 °F 51.8 °F 60% 30.27 in 10.0 mi WSW 5.8 mph - N/A   Clear
10:37 PM 68.0 °F 53.6 °F 60% 30.27 in 10.0 mi WSW 4.6 mph - N/A   Clear
10:57 PM 68.0 °F 53.6 °F 60% 30.27 in 10.0 mi WSW 5.8 mph - N/A   Clear
11:17 PM 64.4 °F 51.8 °F 64% 30.26 in 10.0 mi WSW 5.8 mph - N/A   Clear
11:57 PM 68.0 °F 53.6 °F 60% 30.27 in 10.0 mi WSW 5.8 mph - N/A   Clear